Starlink 5289

operational
NORAD ID: 55278 Int'l Des: 2023-010 Owner: SPXS Country: US Constellation: starlink
LEOCIRCULAR

Starlink 5289について

説明を読み込み中...

リアルタイム位置

3D地球を読み込み中...

次回通過

高度履歴

Altitude vs Time

uPlot chart will show altitude changes over time

軌道要素

1 55278U 23010K 25304.28225014 .00000238 00000-0 27774-4 0 9995
2 55278 70.0000 10.6711 0002888 270.0247 90.0581 14.98331692153390
Epoch: Oct 31, 2025 • Age: 7 hours

現在のステータス

高度 582.0 km
速度 7.57 km/s
衛星直下点 53.61°N, 85.42°W
打ち上げ日 Jan 19, 2023
運用期間 2.7 years
タイプ internet

技術仕様

分類 Payload
質量 305.00 kg
乾燥質量 290.00 kg
総質量 305.00 kg
長さ 0.20 m
直径 2.80 m
スパン 9.00 m
形状 Box + pan
製造者 SPXS
バスタイプ Starlink
フェーズステータス In Orbit
所有者/国 SPXS/US

大規模コンステレーション

Loading constellations...